Weather Roundup
Issued by NWS Corpus Christi, TX

Home | Current Version | Previous Version | Text Only | Print | Product List | Glossary On
Versions: 1 2 3 4 5 6 7 8 9 10 11 12 13 14 15 16 17 18 19 20 21 22 23 24 25 26 27 28 29 30 31 32 33 34 35 36 37 38 39 40 41 42 43 44 45 46 47 48 49 50
000
ASUS44 KCRP 192211
HRRCRP

SOUTH TEXAS REGIONAL WEATHER ROUNDUP
NATIONAL WEATHER SERVICE CORPUS CHRISTI TX
500 PM CDT THU APR 19 2018


TXZ229>244-192300-
...CORPUS CHRISTI AREA OBSERVATIONS...

CITY           SKY/WX    TMP DP  RH WIND       PRES   REMARKS
CORPUS CHRISTI MOSUNNY   78  47  33 E14G23    30.18F
NAS CORPUS CHR MOSUNNY   78  51  38 E16       30.18F
ROCKPORT       SUNNY     75  50  41 E13       30.18F
KINGSVILLE ARP FAIR      81  47  30 NE13G18   30.18F
KINGSVILLE NAS PTSUNNY   78  47  33 E16       30.17F
ALICE          MOSUNNY   80  45  28 E10       30.17F
$$

...VICTORIA AREA OBSERVATIONS...

CITY           SKY/WX    TMP DP  RH WIND       PRES   REMARKS
PORT LAVACA    SUNNY     80  35  19 NE10      30.18F
VICTORIA       MOSUNNY   81  39  22 NE13      30.19F
BEEVILLE       FAIR      80  40  23 E7        30.18F
PLEASANTON     SUNNY     79  39  24 NE10G16   30.21S
SAN ANTONIO    MOSUNNY   77  35  21 E14G20    30.21F
$$

...LAREDO AREA OBSERVATIONS...

CITY           SKY/WX    TMP DP  RH WIND       PRES   REMARKS
LAREDO         CLOUDY    83  52  34 E13       30.14F
COTULLA        MOSUNNY   80  42  25 SE14      30.17F
DEL RIO        CLOUDY    74  37  26 S15       30.18F
MCALLEN        CLOUDY    82  65  56 E15G24    30.13F
HEBBRONVILLE   PTSUNNY   79  50  36 SE16G23   30.16F
$$

...OTHER TEXAS OBSERVATIONS...

CITY           SKY/WX    TMP DP  RH WIND       PRES   REMARKS
BROWNSVILLE    FAIR      80  66  62 NE18      30.14F
HOUSTON        FAIR      76  40  27 NE14G20   30.20F
COL. STATION   SUNNY     75  37  25 NE16      30.22F
AUSTIN         MOSUNNY   74  37  26 NE14      30.22F
WACO           MOSUNNY   73  36  25 N12       30.25F
FORT WORTH     MOSUNNY   69  31  24 NE12G22   30.27F
WICHITA FALLS  PTSUNNY   69  32  25 E7        30.29F
LUBBOCK        MOSUNNY   71  20  14 SE23G30   30.22F
EL PASO        PTSUNNY   83  38  20 SE17      29.97F
$$

...MARINE OBSERVATIONS...

STATION/POSITION TIME  SKY/WX   TEMP    WIND        PRES    VSBY  WAVE   SWELL
                                AIR SEA DIR/SP/G                  HT/PER HT/PER
                 (UTC)          (F)     (DEG/KT/KT) (MB)    (MI)  (FT/S) (FT/S)
PORT ARANSAS     2200            70 71   70/ 15/ 16 1022.1F
BUOY 90 E PORT A 2150            69 73   30/ 14/ 17 1022.2F         5/ 7   3/ 7
BUOY 200 E PT IS 2150            75 76   40/ 10/ 12 1020.5F         2/ 5   2/ 5
BUOY 15 E GALVES 2050            69 71   70/  4/  4 1022.7          3/ 4   2/ 4
$$




USA.gov is the U.S. government's official web portal to all federal, state and local government web resources and services.